Вернуться в каталог

YAM-16

АктивенСвязьSSO
NORAD 68992·PAYLOAD·🇺🇸 United States

Запущен May 3, 2026 с Vandenberg Space Force Base

Loading…

Ближайшие Пролёты (ближайшие 24 часа)

TLE

СвежийSource: Space-Track

Эпоха: Sep 14, 2026, 12:13 UTC

1 68992U 26100N   26257.50938152  .00001100  00000-0  11497-3 0  9995
2 68992  97.7242 153.2007 0002760 179.4298 180.6924 14.91657563 20010

Отслеживайте YAM-16 в реальном времени с AllMySat

Download on the App Store